When you browse on this site, cookies collect data to enhance your experience and personalize the content and advertising you see.
Visit our Privacy Policy to learn more. By continuing to use the site, you agree to this use of cookies and data.
  • în România
  • Lista ţărilor
  • Pe 7 zile
  • Temperatura apei
  • Hartă satelitară
  • Meteo pe hartă
  • Widget-uri
  • user-avatar
    Intrare

    Meteo pe oră la Cochabamba

    Astăzi, 19 Aprilie, Vineri

    Timp Temperatura Precipitaţii Vânt Presiune Umiditate
    00:00 +18°C° 0 mm 1 m/s 556 mmHg 74%
    01:00 +18°C° 0 mm 1 m/s 556 mmHg 73%
    02:00 +16°C° 0 mm 1 m/s 555 mmHg 73%
    03:00 +16°C° 0 mm 1 m/s 555 mmHg 73%
    04:00 +15°C° 0 mm 2 m/s 554 mmHg 72%
    05:00 +15°C° 0 mm 2 m/s 554 mmHg 72%
    06:00 +16°C° 0 mm 2 m/s 555 mmHg 68%
    07:00 +17°C° 0 mm 2 m/s 556 mmHg 63%
    08:00 +18°C° 0 mm 2 m/s 557 mmHg 59%
    09:00 +20°C° 0.1 mm 2 m/s 557 mmHg 53%
    10:00 +21°C° 0.1 mm 2 m/s 558 mmHg 48%
    11:00 +24°C° 0.1 mm 2 m/s 559 mmHg 42%
    12:00 +25°C° 0.2 mm 2 m/s 558 mmHg 42%
    13:00 +25°C° 0.2 mm 2 m/s 558 mmHg 42%
    14:00 +26°C° 0.2 mm 2 m/s 557 mmHg 42%
    15:00 +25°C° 0.4 mm 2 m/s 557 mmHg 43%
    16:00 +25°C° 0.4 mm 2 m/s 556 mmHg 44%
    17:00 +24°C° 0.4 mm 2 m/s 556 mmHg 46%
    18:00 +22°C° 0.7 mm 3 m/s 555 mmHg 53%
    19:00 +20°C° 0.7 mm 3 m/s 555 mmHg 60%
    20:00 +18°C° 0.7 mm 3 m/s 555 mmHg 67%
    21:00 +18°C° 0.2 mm 2 m/s 555 mmHg 69%
    22:00 +17°C° 0.2 mm 2 m/s 555 mmHg 72%
    23:00 +18°C° 0.2 mm 1 m/s 556 mmHg 75%

    Mâine, 20 Aprilie, Sâmbătă

    Timp Temperatura Precipitaţii Vânt Presiune Umiditate
    00:00 +18°C° 0.2 mm 1 m/s 555 mmHg 75%
    01:00 +16°C° 0.2 mm 1 m/s 555 mmHg 75%
    02:00 +16°C° 0.2 mm 1 m/s 555 mmHg 75%
    03:00 +16°C° 0 mm 1 m/s 555 mmHg 75%
    04:00 +16°C° 0 mm 2 m/s 555 mmHg 75%
    05:00 +15°C° 0 mm 2 m/s 554 mmHg 76%
    06:00 +16°C° 0.1 mm 2 m/s 555 mmHg 72%
    07:00 +17°C° 0.1 mm 2 m/s 556 mmHg 68%
    08:00 +18°C° 0.1 mm 2 m/s 557 mmHg 64%
    09:00 +20°C° 0.1 mm 2 m/s 557 mmHg 58%
    10:00 +21°C° 0.1 mm 2 m/s 558 mmHg 52%
    11:00 +24°C° 0.1 mm 2 m/s 559 mmHg 46%
    12:00 +24°C° 0.3 mm 2 m/s 558 mmHg 46%
    13:00 +25°C° 0.3 mm 3 m/s 557 mmHg 46%
    14:00 +25°C° 0.3 mm 3 m/s 557 mmHg 45%
    15:00 +25°C° 0.3 mm 3 m/s 556 mmHg 47%
    16:00 +25°C° 0.3 mm 3 m/s 556 mmHg 48%
    17:00 +23°C° 0.3 mm 4 m/s 555 mmHg 50%
    18:00 +22°C° 0.2 mm 3 m/s 555 mmHg 57%
    19:00 +20°C° 0.2 mm 3 m/s 554 mmHg 65%
    20:00 +18°C° 0.2 mm 3 m/s 554 mmHg 73%
    21:00 +18°C° 0.1 mm 3 m/s 555 mmHg 74%
    22:00 +18°C° 0.1 mm 2 m/s 555 mmHg 75%
    23:00 +17°C° 0.1 mm 2 m/s 555 mmHg 77%

    Poimâine, 21 Aprilie, Duminică

    Timp Temperatura Precipitaţii Vânt Presiune Umiditate
    00:00 +17°C° 0.1 mm 2 m/s 555 mmHg 77%
    01:00 +17°C° 0.1 mm 2 m/s 555 mmHg 77%
    02:00 +16°C° 0.1 mm 2 m/s 554 mmHg 78%
    03:00 +16°C° 0.1 mm 2 m/s 554 mmHg 77%
    04:00 +16°C° 0.1 mm 2 m/s 553 mmHg 76%
    05:00 +15°C° 0.1 mm 2 m/s 553 mmHg 75%
    06:00 +16°C° 0 mm 2 m/s 554 mmHg 68%
    07:00 +17°C° 0 mm 2 m/s 555 mmHg 61%
    08:00 +18°C° 0 mm 2 m/s 556 mmHg 54%
    09:00 +20°C° 0.2 mm 2 m/s 556 mmHg 49%
    10:00 +23°C° 0.2 mm 2 m/s 557 mmHg 44%
    11:00 +25°C° 0.2 mm 2 m/s 558 mmHg 38%
    12:00 +25°C° 0.8 mm 2 m/s 557 mmHg 38%
    13:00 +26°C° 0.8 mm 3 m/s 557 mmHg 38%
    14:00 +27°C° 0.8 mm 3 m/s 556 mmHg 38%
    15:00 +26°C° 1.2 mm 3 m/s 556 mmHg 41%
    16:00 +25°C° 1.2 mm 3 m/s 555 mmHg 43%
    17:00 +25°C° 1.2 mm 3 m/s 555 mmHg 46%
    18:00 +23°C° 0.9 mm 2 m/s 554 mmHg 53%
    19:00 +20°C° 0.9 mm 2 m/s 554 mmHg 61%
    20:00 +18°C° 0.9 mm 2 m/s 554 mmHg 68%
    21:00 +18°C° 0.3 mm 2 m/s 554 mmHg 71%
    22:00 +18°C° 0.3 mm 1 m/s 554 mmHg 74%
    23:00 +18°C° 0.3 mm 1 m/s 554 mmHg 76%

    22 Aprilie, Luni

    Timp Temperatura Precipitaţii Vânt Presiune Umiditate
    00:00 +16°C° 0.6 mm 1 m/s 554 mmHg 76%
    01:00 +16°C° 0.6 mm 1 m/s 553 mmHg 76%
    02:00 +15°C° 0.6 mm 1 m/s 553 mmHg 76%
    03:00 +15°C° 0.2 mm 1 m/s 553 mmHg 78%
    04:00 +14°C° 0.2 mm 1 m/s 552 mmHg 80%
    05:00 +13°C° 0.2 mm 1 m/s 552 mmHg 82%
    06:00 +14°C° 0 mm 1 m/s 553 mmHg 78%
    07:00 +15°C° 0 mm 1 m/s 554 mmHg 75%
    08:00 +18°C° 0 mm 1 m/s 555 mmHg 71%
    09:00 +18°C° 0.5 mm 1 m/s 556 mmHg 68%
    10:00 +18°C° 0.5 mm 2 m/s 557 mmHg 65%
    11:00 +19°C° 0.5 mm 2 m/s 557 mmHg 62%
    12:00 +19°C° 1.2 mm 2 m/s 557 mmHg 61%
    13:00 +20°C° 1.2 mm 3 m/s 556 mmHg 61%
    14:00 +20°C° 1.2 mm 3 m/s 556 mmHg 60%
    15:00 +20°C° 0.1 mm 3 m/s 555 mmHg 60%
    16:00 +20°C° 0.1 mm 3 m/s 555 mmHg 60%
    17:00 +20°C° 0.1 mm 3 m/s 555 mmHg 60%
    18:00 +19°C° 0 mm 2 m/s 555 mmHg 66%
    19:00 +17°C° 0 mm 2 m/s 555 mmHg 72%
    20:00 +16°C° 0 mm 1 m/s 555 mmHg 77%
    21:00 +16°C° 0.1 mm 1 m/s 555 mmHg 79%
    22:00 +16°C° 0.1 mm 1 m/s 555 mmHg 81%
    23:00 +15°C° 0.1 mm 1 m/s 555 mmHg 83%

    23 Aprilie, Marţi

    Timp Temperatura Precipitaţii Vânt Presiune Umiditate
    00:00 +15°C° 0.1 mm 1 m/s 555 mmHg 83%
    01:00 +15°C° 0.1 mm 1 m/s 555 mmHg 83%
    02:00 +14°C° 0.1 mm 0 m/s 555 mmHg 84%
    03:00 +13°C° 0.1 mm 0 m/s 554 mmHg 84%
    04:00 +13°C° 0.1 mm 0 m/s 554 mmHg 84%
    05:00 +13°C° 0.1 mm 0 m/s 554 mmHg 85%
    06:00 +13°C° 0.1 mm 0 m/s 555 mmHg 81%
    07:00 +14°C° 0.1 mm 0 m/s 556 mmHg 78%
    08:00 +16°C° 0.1 mm 1 m/s 556 mmHg 74%
    09:00 +18°C° 0.2 mm 1 m/s 557 mmHg 70%
    10:00 +19°C° 0.2 mm 1 m/s 557 mmHg 66%
    11:00 +20°C° 0.2 mm 1 m/s 558 mmHg 62%
    12:00 +19°C° 0.7 mm 2 m/s 557 mmHg 61%
    13:00 +20°C° 0.7 mm 2 m/s 557 mmHg 59%
    14:00 +20°C° 0.7 mm 3 m/s 556 mmHg 58%
    15:00 +20°C° 0.6 mm 2 m/s 556 mmHg 60%
    16:00 +19°C° 0.6 mm 2 m/s 555 mmHg 62%
    17:00 +19°C° 0.6 mm 2 m/s 555 mmHg 65%
    18:00 +18°C° 0.8 mm 2 m/s 555 mmHg 68%
    19:00 +18°C° 0.8 mm 2 m/s 555 mmHg 71%
    20:00 +18°C° 0.8 mm 1 m/s 556 mmHg 74%
    21:00 +18°C° 0.6 mm 1 m/s 556 mmHg 75%
    22:00 +16°C° 0.6 mm 1 m/s 556 mmHg 76%
    23:00 +16°C° 0.6 mm 1 m/s 556 mmHg 78%

    24 Aprilie, Miercuri

    Timp Temperatura Precipitaţii Vânt Presiune Umiditate
    00:00 +16°C° 0.4 mm 1 m/s 556 mmHg 78%
    01:00 +15°C° 0.4 mm 1 m/s 556 mmHg 79%
    02:00 +15°C° 0.4 mm 1 m/s 555 mmHg 79%
    03:00 +15°C° 0.4 mm 1 m/s 555 mmHg 79%
    04:00 +15°C° 0.4 mm 1 m/s 555 mmHg 79%
    05:00 +14°C° 0.4 mm 1 m/s 555 mmHg 79%
    06:00 +15°C° 0.3 mm 1 m/s 556 mmHg 76%
    07:00 +16°C° 0.3 mm 2 m/s 556 mmHg 73%
    08:00 +16°C° 0.3 mm 2 m/s 557 mmHg 70%
    09:00 +18°C° 0.1 mm 2 m/s 557 mmHg 66%
    10:00 +19°C° 0.1 mm 2 m/s 558 mmHg 61%
    11:00 +20°C° 0.1 mm 2 m/s 558 mmHg 57%
    12:00 +21°C° 0.2 mm 3 m/s 558 mmHg 56%
    13:00 +22°C° 0.2 mm 3 m/s 557 mmHg 54%
    14:00 +22°C° 0.2 mm 3 m/s 557 mmHg 53%
    15:00 +22°C° 0.3 mm 3 m/s 557 mmHg 55%
    16:00 +21°C° 0.3 mm 4 m/s 556 mmHg 56%
    17:00 +21°C° 0.3 mm 4 m/s 556 mmHg 57%
    18:00 +20°C° 0.2 mm 3 m/s 556 mmHg 63%
    19:00 +18°C° 0.2 mm 3 m/s 555 mmHg 69%
    20:00 +17°C° 0.2 mm 3 m/s 555 mmHg 74%
    21:00 +17°C° 0.1 mm 3 m/s 555 mmHg 76%
    22:00 +16°C° 0.1 mm 2 m/s 555 mmHg 78%
    23:00 +16°C° 0.1 mm 2 m/s 556 mmHg 79%
    Arată mai mult